When you browse on this site, cookies collect data to enhance your experience and personalize the content and advertising you see.
Visit our Privacy Policy to learn more. By continuing to use the site, you agree to this use of cookies and data.
  • în România
  • Lista ţărilor
  • Pe 7 zile
  • Temperatura apei
  • Hartă satelitară
  • Meteo pe hartă
  • Widget-uri
  • user-avatar
    Intrare

    Meteo pe oră la Sari

    Astăzi, 22 Iulie, Luni

    Timp Temperatura Precipitaţii Vânt Presiune Umiditate
    00:00 +28°C° 0 mm 1 m/s 754 mmHg 69%
    01:00 +28°C° 0 mm 1 m/s 754 mmHg 70%
    02:00 +27°C° 0 mm 1 m/s 754 mmHg 71%
    03:00 +27°C° 0 mm 1 m/s 754 mmHg 72%
    04:00 +27°C° 0 mm 1 m/s 753 mmHg 73%
    05:00 +28°C° 0 mm 1 m/s 754 mmHg 71%
    06:00 +28°C° 0 mm 1 m/s 754 mmHg 68%
    07:00 +27°C° 0 mm 0 m/s 754 mmHg 66%
    08:00 +31°C° 0 mm 1 m/s 754 mmHg 59%
    09:00 +34°C° 0 mm 2 m/s 754 mmHg 52%
    10:00 +36°C° 0 mm 3 m/s 753 mmHg 46%
    11:00 +37°C° 0 mm 3 m/s 753 mmHg 43%
    12:00 +40°C° 0 mm 4 m/s 753 mmHg 40%
    13:00 +41°C° 0 mm 4 m/s 753 mmHg 37%
    14:00 +41°C° 0 mm 4 m/s 752 mmHg 37%
    15:00 +41°C° 0 mm 4 m/s 752 mmHg 38%
    16:00 +40°C° 0 mm 4 m/s 752 mmHg 38%
    17:00 +38°C° 0 mm 3 m/s 752 mmHg 42%
    18:00 +37°C° 0 mm 2 m/s 751 mmHg 46%
    19:00 +35°C° 0 mm 2 m/s 751 mmHg 51%
    20:00 +33°C° 0 mm 1 m/s 751 mmHg 56%
    21:00 +31°C° 0 mm 1 m/s 752 mmHg 61%
    22:00 +30°C° 0 mm 1 m/s 752 mmHg 66%
    23:00 +29°C° 0 mm 1 m/s 752 mmHg 70%

    Mâine, 23 Iulie, Marţi

    Timp Temperatura Precipitaţii Vânt Presiune Umiditate
    00:00 +28°C° 0 mm 2 m/s 752 mmHg 73%
    01:00 +28°C° 0 mm 2 m/s 751 mmHg 77%
    02:00 +27°C° 0 mm 3 m/s 752 mmHg 79%
    03:00 +27°C° 0 mm 3 m/s 752 mmHg 82%
    04:00 +27°C° 0 mm 3 m/s 752 mmHg 84%
    05:00 +27°C° 0 mm 4 m/s 752 mmHg 79%
    06:00 +28°C° 0 mm 4 m/s 753 mmHg 75%
    07:00 +29°C° 0 mm 4 m/s 753 mmHg 71%
    08:00 +30°C° 0 mm 4 m/s 753 mmHg 65%
    09:00 +33°C° 0 mm 5 m/s 753 mmHg 60%
    10:00 +34°C° 0 mm 6 m/s 753 mmHg 55%
    11:00 +35°C° 0 mm 6 m/s 753 mmHg 53%
    12:00 +36°C° 0 mm 6 m/s 753 mmHg 50%
    13:00 +36°C° 0 mm 5 m/s 753 mmHg 48%
    14:00 +36°C° 0 mm 5 m/s 752 mmHg 48%
    15:00 +36°C° 0 mm 5 m/s 752 mmHg 48%
    16:00 +36°C° 0 mm 5 m/s 752 mmHg 48%
    17:00 +35°C° 0 mm 4 m/s 751 mmHg 52%
    18:00 +34°C° 0 mm 3 m/s 751 mmHg 56%
    19:00 +31°C° 0 mm 2 m/s 751 mmHg 60%
    20:00 +30°C° 0 mm 1 m/s 751 mmHg 67%
    21:00 +28°C° 0 mm 1 m/s 751 mmHg 75%
    22:00 +25°C° 0 mm 0 m/s 751 mmHg 82%
    23:00 +24°C° 0 mm 0 m/s 751 mmHg 83%

    Poimâine, 24 Iulie, Miercuri

    Timp Temperatura Precipitaţii Vânt Presiune Umiditate
    00:00 +24°C° 0 mm 0 m/s 751 mmHg 84%
    01:00 +26°C° 0 mm 1 m/s 751 mmHg 85%
    02:00 +26°C° 0 mm 1 m/s 751 mmHg 85%
    03:00 +26°C° 0 mm 1 m/s 751 mmHg 86%
    04:00 +25°C° 0 mm 1 m/s 751 mmHg 87%
    05:00 +26°C° 0 mm 1 m/s 752 mmHg 83%
    06:00 +27°C° 0 mm 1 m/s 752 mmHg 80%
    07:00 +28°C° 0 mm 1 m/s 752 mmHg 76%
    08:00 +30°C° 0 mm 2 m/s 752 mmHg 69%
    09:00 +31°C° 0 mm 2 m/s 752 mmHg 61%
    10:00 +34°C° 0 mm 3 m/s 752 mmHg 54%
    11:00 +35°C° 0 mm 3 m/s 752 mmHg 51%
    12:00 +36°C° 0 mm 4 m/s 751 mmHg 48%
    13:00 +37°C° 0 mm 5 m/s 751 mmHg 46%
    14:00 +37°C° 0 mm 5 m/s 751 mmHg 48%
    15:00 +36°C° 0 mm 4 m/s 750 mmHg 49%
    16:00 +36°C° 0 mm 4 m/s 750 mmHg 51%
    17:00 +35°C° 0 mm 3 m/s 750 mmHg 56%
    18:00 +33°C° 0 mm 3 m/s 750 mmHg 61%
    19:00 +31°C° 0 mm 2 m/s 749 mmHg 66%
    20:00 +30°C° 0 mm 2 m/s 750 mmHg 72%
    21:00 +28°C° 0 mm 1 m/s 750 mmHg 79%
    22:00 +27°C° 0 mm 1 m/s 750 mmHg 86%
    23:00 +26°C° 0 mm 1 m/s 750 mmHg 87%

    25 Iulie, Joi

    Timp Temperatura Precipitaţii Vânt Presiune Umiditate
    00:00 +26°C° 0 mm 1 m/s 750 mmHg 87%
    01:00 +26°C° 0 mm 1 m/s 751 mmHg 88%
    02:00 +26°C° 0 mm 1 m/s 751 mmHg 89%
    03:00 +26°C° 0 mm 1 m/s 751 mmHg 90%
    04:00 +25°C° 0 mm 2 m/s 751 mmHg 91%
    05:00 +26°C° 0 mm 2 m/s 751 mmHg 86%
    06:00 +27°C° 0 mm 2 m/s 751 mmHg 81%
    07:00 +28°C° 0 mm 2 m/s 752 mmHg 77%
    08:00 +30°C° 0 mm 2 m/s 752 mmHg 67%
    09:00 +32°C° 0 mm 2 m/s 752 mmHg 58%
    10:00 +36°C° 0 mm 3 m/s 752 mmHg 48%
    11:00 +36°C° 0 mm 4 m/s 752 mmHg 47%
    12:00 +37°C° 0 mm 4 m/s 751 mmHg 45%
    13:00 +39°C° 0 mm 5 m/s 751 mmHg 43%
    14:00 +38°C° 0 mm 4 m/s 751 mmHg 43%
    15:00 +37°C° 0 mm 4 m/s 750 mmHg 44%
    16:00 +37°C° 0 mm 4 m/s 750 mmHg 44%
    17:00 +36°C° 0 mm 3 m/s 750 mmHg 48%
    18:00 +34°C° 0 mm 3 m/s 750 mmHg 53%
    19:00 +32°C° 0 mm 2 m/s 750 mmHg 57%
    20:00 +30°C° 0 mm 1 m/s 751 mmHg 64%
    21:00 +29°C° 0 mm 1 m/s 751 mmHg 71%
    22:00 +25°C° 0 mm 0 m/s 751 mmHg 78%
    23:00 +25°C° 0 mm 0 m/s 751 mmHg 79%

    26 Iulie, Vineri

    Timp Temperatura Precipitaţii Vânt Presiune Umiditate
    00:00 +27°C° 0 mm 1 m/s 751 mmHg 79%
    01:00 +27°C° 0 mm 1 m/s 751 mmHg 80%
    02:00 +26°C° 0 mm 1 m/s 751 mmHg 80%
    03:00 +26°C° 0 mm 2 m/s 751 mmHg 80%
    04:00 +26°C° 0 mm 2 m/s 751 mmHg 81%
    05:00 +27°C° 0 mm 2 m/s 752 mmHg 77%
    06:00 +28°C° 0 mm 2 m/s 752 mmHg 74%
    07:00 +29°C° 0 mm 3 m/s 752 mmHg 70%
    08:00 +30°C° 0 mm 3 m/s 752 mmHg 63%
    09:00 +33°C° 0 mm 3 m/s 752 mmHg 55%
    10:00 +35°C° 0 mm 3 m/s 752 mmHg 48%
    11:00 +36°C° 0 mm 4 m/s 751 mmHg 45%
    12:00 +37°C° 0 mm 4 m/s 751 mmHg 43%
    13:00 +39°C° 0 mm 5 m/s 750 mmHg 40%
    14:00 +37°C° 0 mm 5 m/s 750 mmHg 42%
    15:00 +36°C° 0 mm 4 m/s 750 mmHg 44%
    16:00 +36°C° 0 mm 4 m/s 749 mmHg 46%
    17:00 +34°C° 0 mm 4 m/s 749 mmHg 50%
    18:00 +33°C° 0 mm 3 m/s 748 mmHg 54%
    19:00 +31°C° 0 mm 3 m/s 748 mmHg 58%
    20:00 +29°C° 0 mm 2 m/s 748 mmHg 65%
    21:00 +28°C° 0 mm 1 m/s 748 mmHg 71%
    22:00 +25°C° 0 mm 0 m/s 748 mmHg 77%
    23:00 +26°C° 0 mm 1 m/s 748 mmHg 78%

    27 Iulie, Sâmbătă

    Timp Temperatura Precipitaţii Vânt Presiune Umiditate
    00:00 +26°C° 0 mm 1 m/s 748 mmHg 80%
    01:00 +26°C° 0 mm 2 m/s 748 mmHg 82%
    02:00 +26°C° 0 mm 2 m/s 748 mmHg 83%
    03:00 +25°C° 0 mm 2 m/s 748 mmHg 84%
    04:00 +25°C° 0 mm 2 m/s 749 mmHg 85%
    05:00 +26°C° 0 mm 2 m/s 749 mmHg 80%
    06:00 +27°C° 0 mm 2 m/s 749 mmHg 76%
    07:00 +28°C° 0 mm 2 m/s 749 mmHg 72%
    08:00 +29°C° 0 mm 2 m/s 748 mmHg 66%
    09:00 +31°C° 0 mm 3 m/s 748 mmHg 60%
    10:00 +34°C° 0 mm 4 m/s 748 mmHg 54%
    11:00 +34°C° 0 mm 4 m/s 748 mmHg 54%
    12:00 +34°C° 0 mm 5 m/s 748 mmHg 54%
    13:00 +35°C° 0 mm 5 m/s 747 mmHg 53%
    14:00 +34°C° 0 mm 5 m/s 747 mmHg 54%
    15:00 +34°C° 0 mm 4 m/s 746 mmHg 54%
    16:00 +34°C° 0 mm 4 m/s 746 mmHg 55%
    17:00 +33°C° 0 mm 4 m/s 746 mmHg 58%
    18:00 +31°C° 0 mm 3 m/s 746 mmHg 61%
    19:00 +30°C° 0 mm 3 m/s 745 mmHg 65%
    20:00 +28°C° 0 mm 3 m/s 746 mmHg 71%
    21:00 +27°C° 0 mm 2 m/s 746 mmHg 77%
    22:00 +26°C° 0 mm 1 m/s 747 mmHg 84%
    23:00 +26°C° 0 mm 2 m/s 747 mmHg 83%
    Arată mai mult